This is the latest recevied weather packets stored in our database for station/object KB9MLJ. If no packets are shown the sender has not sent any weather packets the latest 10 day(s).
| Time | Temp. | Humidity | Pressure | Rain* | Wind** | Luminosity | Snow |
|---|---|---|---|---|---|---|---|
| 1777832909 | 16.67° C | 51% | 1011.7 hPa | 0 mm | - | 470 W/m² | - |
| 1777832609 | 16.11° C | 51% | 1011.7 hPa | 0 mm | - | 408 W/m² | - |
| 1777832305 | 15.56° C | 54% | 1012 hPa | 0 mm | - | 422 W/m² | - |
| 1777832002 | 15° C | 55% | 1012.3 hPa | 0 mm | - | 412 W/m² | - |
| 1777831698 | 15° C | 56% | 1012 hPa | 0 mm | - | 321 W/m² | - |
| 1777831397 | 14.44° C | 58% | 1012.7 hPa | 0 mm | - | 317 W/m² | - |
| 1777831093 | 14.44° C | 58% | 1012.7 hPa | 0 mm | - | 273 W/m² | - |
| 1777830791 | 14.44° C | 58% | 1013 hPa | 0 mm | - | 368 W/m² | - |
| 1777830486 | 13.89° C | 60% | 1013.3 hPa | 0 mm | - | 534 W/m² | - |
| 1777830185 | 13.33° C | 61% | 1013.3 hPa | 0 mm | - | 354 W/m² | - |
| 1777829880 | 12.78° C | 63% | 1013.3 hPa | 0 mm | - | 255 W/m² | - |
| 1777829575 | 12.78° C | 67% | 1013.7 hPa | 0 mm | - | 164 W/m² | - |
| 1777829273 | 12.22° C | 65% | 1013.7 hPa | 0 mm | - | 92 W/m² | - |
| 1777828970 | 12.22° C | 71% | 1014 hPa | 0 mm | - | 66 W/m² | - |
| 1777828666 | 12.22° C | 69% | 1014 hPa | 0 mm | - | 69 W/m² | - |
| 1777828364 | 12.22° C | 68% | 1014 hPa | 0 mm | - | 56 W/m² | - |
| 1777828061 | 12.22° C | 68% | 1014 hPa | 0 mm | - | 59 W/m² | - |
| 1777827757 | 12.22° C | 67% | 1014 hPa | 0 mm | - | 68 W/m² | - |
| 1777827454 | 12.22° C | 68% | 1014 hPa | 0.25 mm | - | 57 W/m² | - |
| 1777827151 | 11.67° C | 69% | 1014 hPa | 0.25 mm | - | 66 W/m² | - |
| 1777826847 | 11.67° C | 71% | 1013.7 hPa | 0.25 mm | - | 138 W/m² | - |
| 1777826545 | 11.11° C | 77% | 1014 hPa | 0.25 mm | - | 133 W/m² | - |
| 1777826241 | 11.67° C | 76% | 1014.4 hPa | 0.25 mm | - | 80 W/m² | - |
| 1777825939 | 11.67° C | 74% | 1014.4 hPa | 0 mm | - | 74 W/m² | - |
| 1777825636 | 11.67° C | 72% | 1014.4 hPa | 0 mm | - | 78 W/m² | - |
* Rain latest hour (hover to see other rain measurements)
** Current wind speed in m/s (hover to see current wind gust speed)